Volver al catálogo

STARLINK-5150

ActivoComunicacionesVLEO
NORAD 57144·PAYLOAD·🇺🇸 United States

Lanzado Jun 23, 2023 desde Cape Canaveral Space Force Station

Loading…

Próximos Pases (próximas 24 horas)

TLE

ActualizadoSource: CelesTrak SupGP

Época: Sep 15, 2026, 01:42 UTC

1 57144C 23090AV  26258.07131944  .00006183  00000+0  22397-3 0  2588
2 57144  43.0030 273.5598 0001441 286.9239 296.7810 15.27574365    10

Sigue STARLINK-5150 en tiempo real con AllMySat

Download on the App Store